Hourly Data Report for October 12, 2016

All times are specified in Local Standard Time (LST). Add 1 hour to adjust for Daylight Saving Time where and when it is observed.

KUGLUKTUK A
NUNAVUT

67°49'00.000" N
115°08'38.000" W
22.60 m
2300903
71938
YCO

Download Data

Hourly Data (October 2016)
Hourly Data Report for October 12, 2016
Temp Definition
°C
Dew Point Temp Definition
°C
Rel Hum Definition
%
Wind Dir Definition
10's deg

Wind Spd Definition
km/h
Visibility Definition
km
Stn Press Definition
kPa
Hmdx Definition


Wind Chill Definition


Weather Definition


TIME
00:00 Legend Double Dagger -6.3 -8.6 84 25 19 9.7 102.07   -13 Snow
01:00 Legend Double Dagger -5.9 -7.6 88 26 23 24.1 102.00   -13 Snow
02:00 Legend Double Dagger -5.1 -6.8 88 29 24 9.7 101.99   -12 Snow
03:00 Legend Double Dagger -3.6 -5.9 84 30 27 9.7 101.98   -11 Snow,Blowing Snow
04:00 Legend Double Dagger -4.5 -7.8 78 35 40 6.4 102.01   -13 Snow Grains,Blowing Snow
05:00 Legend Double Dagger -5.5 -8.9 77 34 36 8.1 102.05   -14 Snow Grains,Blowing Snow
06:00 Legend Double Dagger -6.4 -9.6 78 35 36 16.1 102.09   -16 Snow Grains,Blowing Snow
07:00 Legend Double Dagger -6.2 -9.8 76 34 31 24.1 102.09   -15 Snow Grains,Blowing Snow
08:00 Legend Double Dagger -6.1 -9.7 76 33 34 24.1 102.05   -15 Snow Grains,Blowing Snow
09:00 Legend Double Dagger -6.0 -9.6 76 34 27 24.1 102.07   -14 Blowing Snow
10:00 Legend Double Dagger -5.7 -9.6 74 33 19 24.1 102.07   -12 Blowing Snow
11:00 Legend Double Dagger -5.8 -9.2 77 26 14 24.1 102.04   -11 Blowing Snow
12:00 Legend Double Dagger -5.4 -8.5 79 25 11 24.1 101.99   -10 LegendNANA
13:00 Legend Double Dagger -5.0 -7.8 81 23 14 19.3 101.94   -10 Snow
14:00 Legend Double Dagger -3.6 -6.4 81 33 26 11.3 101.92   -11 Snow,Blowing Snow
15:00 Legend Double Dagger -4.2 -7.5 78 34 28 12.9 101.90   -12 Snow,Blowing Snow
16:00 Legend Double Dagger -4.8 -8.9 73 35 30 16.1 101.90   -13 Snow,Blowing Snow
17:00 Legend Double Dagger -4.9 -9.2 72 32 20 16.1 101.88   -11 Snow,Blowing Snow
18:00 Legend Double Dagger -5.5 -8.6 79 31 12 19.3 101.87   -10 Snow
19:00 Legend Double Dagger -5.4 -7.5 85 28 18 19.3 101.84   -12 Snow
20:00 Legend Double Dagger -6.3 -7.8 89 28 14 24.1 101.82   -12 Snow
21:00 Legend Double Dagger -6.2 -7.6 90 28 13 16.1 101.80   -12 Snow
22:00 Legend Double Dagger -4.8 -8.1 78 35 13 16.1 101.78   -10 Snow
23:00 Legend Double Dagger -5.5 -7.9 83 28 13 16.1 101.77   -11 Snow

Notes on Data Quality.

Legend

  • E = Estimated
  • M = Missing
  • NA = Not Available
  • ‡ = Partner data that is not subject to review by the National Climate Archives
Date modified: